Location: Unspecified
(52.4292°N, 19.3359°E)
Time: 01:32:54
(UTC+02:00)

A-11 Canister half - Pass Details

Date: 28 May 2024
Orbit: 1514 x 1685 km, 47.2° (Epoch: 20 June)

Event Time Altitude Azimuth Distance (km) Brightness Sun altitude
Rises 07:02:43 0° 284° (WNW) 4,708 11.0 20.3°
Reaches altitude 10° 07:06:02 10° 277° (W) 3,707 10.5 20.8°
Maximum altitude 07:14:19 38° 213° (SSW) 2,163 9.7 22.1°
Drops below altitude 10° 07:22:32 10° 150° (SSE) 3,671 11.4 23.3°
Sets 07:25:49 0° 143° (SE) 4,658 12.0 23.8°
